TimeEDT,TemperatureF,Dew PointF,Humidity,Sea Level PressureIn,VisibilityMPH,Wind Direction,Wind SpeedMPH,Gust SpeedMPH,PrecipitationIn,Events,Conditions,WindDirDegrees,DateUTC
12:51 AM,53.1,16.0,23,30.01,10.0,SE,9.2,-,N/A,,Overcast,140,2013-04-07 04:51:00
1:51 AM,53.1,18.0,25,30.00,10.0,SSE,9.2,-,N/A,,Overcast,150,2013-04-07 05:51:00
2:51 AM,54.0,21.9,29,29.97,10.0,South,9.2,-,N/A,,Overcast,170,2013-04-07 06:51:00
3:51 AM,55.9,27.0,33,29.95,10.0,South,6.9,-,N/A,,Overcast,180,2013-04-07 07:51:00
4:51 AM,55.9,28.9,36,29.94,10.0,South,8.1,-,N/A,,Overcast,180,2013-04-07 08:51:00
5:51 AM,55.9,28.9,36,29.94,10.0,South,6.9,-,N/A,,Overcast,180,2013-04-07 09:51:00
6:51 AM,55.0,28.9,37,29.94,10.0,South,9.2,-,N/A,,Mostly Cloudy,180,2013-04-07 10:51:00
7:51 AM,55.9,30.0,37,29.94,10.0,South,6.9,-,N/A,,Mostly Cloudy,190,2013-04-07 11:51:00
8:51 AM,60.1,30.9,33,29.92,10.0,SSW,13.8,23.0,N/A,,Mostly Cloudy,200,2013-04-07 12:51:00
9:51 AM,63.0,32.0,31,29.91,10.0,SW,19.6,32.2,N/A,,Overcast,220,2013-04-07 13:51:00
10:51 AM,64.4,33.8,32,29.89,10.0,SSW,19.6,34.5,N/A,,Overcast,210,2013-04-07 14:51:00
11:51 AM,64.0,35.1,34,29.91,10.0,SW,15.0,27.6,N/A,,Overcast,230,2013-04-07 15:51:00
12:51 PM,64.0,36.0,35,29.91,10.0,SW,16.1,20.7,0.00,Rain,Light Rain,230,2013-04-07 16:51:00
1:51 PM,68.0,37.9,33,29.90,10.0,SW,20.7,29.9,0.00,,Mostly Cloudy,230,2013-04-07 17:51:00
2:51 PM,70.0,39.0,32,29.90,10.0,SW,16.1,32.2,N/A,,Mostly Cloudy,230,2013-04-07 18:51:00
3:51 PM,72.0,39.9,31,29.89,10.0,WSW,17.3,26.5,N/A,,Mostly Cloudy,250,2013-04-07 19:51:00
4:51 PM,72.0,39.9,31,29.89,10.0,WSW,13.8,21.9,N/A,,Mostly Cloudy,250,2013-04-07 20:51:00
5:51 PM,71.1,39.0,31,29.90,10.0,WSW,18.4,27.6,N/A,,Mostly Cloudy,250,2013-04-07 21:51:00
6:51 PM,70.0,39.9,33,29.91,10.0,West,9.2,-,N/A,,Mostly Cloudy,260,2013-04-07 22:51:00
7:51 PM,68.0,39.9,36,29.93,10.0,WSW,6.9,16.1,N/A,,Mostly Cloudy,250,2013-04-07 23:51:00
8:51 PM,66.9,39.9,37,29.95,10.0,West,5.8,-,N/A,,Mostly Cloudy,260,2013-04-08 00:51:00
9:51 PM,60.1,41.0,49,29.99,10.0,North,10.4,-,N/A,,Mostly Cloudy,350,2013-04-08 01:51:00
10:51 PM,57.2,39.2,51,30.00,10.0,NNW,5.8,-,N/A,,Overcast,340,2013-04-08 02:51:00
11:51 PM,54.0,39.0,57,30.02,10.0,North,5.8,-,N/A,,Mostly Cloudy,10,2013-04-08 03:51:00